Volver al catálogo

DELTA 1 DEB

ActivoPO
NORAD 23310·DEBRIS·🇺🇸 United States

Lanzado Jun 12, 1975 desde Vandenberg Space Force Base

Loading…

Próximos Pases (próximas 24 horas)

TLE

ActualizadoSource: Space-Track

Época: Sep 13, 2026, 04:57 UTC

1 23310U 75052JZ  26256.20649243  .00000183  00000-0  68033-3 0  9994
2 23310  99.9267 337.8715 0320857 269.4287 112.9637 12.89961696596309

Sigue DELTA 1 DEB en tiempo real con AllMySat

Download on the App Store